Hourly Data Report for September 10, 2017

TORONTO CITY
ONTARIO

43°40'00.000" N
79°24'00.000" W
112.50 m
6158355
71508
XTO

Download Data

Hourly Data (September 2017)
Hourly Data Report for September 10, 2017
TIME
LST
Temp Definition
°C
Dew Point Definition
°C
Rel Hum Definition
%
Precip. Amount Definition
mm

Wind Dir Definition
10's deg

Wind Spd Definition
km/h
Visibility Definition
km
Stn Press Definition
kPa
Hmdx Definition


Wind Chill Definition


Weather Definition


00:00 11.4 5.7 68 0.0 LegendMM LegendMM   101.68     LegendNANA
01:00 11.8 5.9 67 0.0 LegendMM LegendMM   101.70     LegendNANA
02:00 11.5 6.6 72 0.0 LegendMM LegendMM   101.71     LegendNANA
03:00 11.7 6.2 69 0.0 LegendMM LegendMM   101.73     LegendNANA
04:00 11.8 5.9 67 0.0 LegendMM LegendMM   101.76     LegendNANA
05:00 11.5 5.3 66 0.0 LegendMM LegendMM   101.81     LegendNANA
06:00 11.8 5.2 64 0.0 LegendMM LegendMM   101.87     LegendNANA
07:00 12.1 5.3 63 0.0 LegendMM LegendMM   101.91     LegendNANA
08:00 13.7 5.7 59 0.0 LegendMM LegendMM   101.95     LegendNANA
09:00 15.6 5.0 49 0.0 LegendMM LegendMM   101.99     LegendNANA
10:00 16.5 3.7 43 0.0 LegendMM LegendMM   101.98     LegendNANA
11:00 17.4 3.0 38 0.0 LegendMM LegendMM   101.96     LegendNANA
12:00 17.9 3.1 37 0.0 LegendMM LegendMM   101.92     LegendNANA
13:00 18.4 4.4 40 0.0 LegendMM LegendMM   101.87     LegendNANA
14:00 17.8 3.9 40 0.0 LegendMM LegendMM   101.81     LegendNANA
15:00 18.4 5.3 42 0.0 LegendMM LegendMM   101.75     LegendNANA
16:00 17.0 5.2 46 0.0 LegendMM LegendMM   101.70     LegendNANA
17:00 16.7 6.1 50 0.0 LegendMM LegendMM   101.69     LegendNANA
18:00 16.1 6.5 53 0.0 LegendMM LegendMM   101.68     LegendNANA
19:00 15.3 6.6 56 0.0 LegendMM LegendMM   101.68     LegendNANA
20:00 14.3 7.4 63 0.0 LegendMM LegendMM   101.67     LegendNANA
21:00 13.7 7.6 67 0.0 LegendMM LegendMM   101.69     LegendNANA
22:00 13.2 7.7 70 0.0 LegendMM LegendMM   101.70     LegendNANA
23:00 12.6 7.5 71 0.0 LegendMM LegendMM   101.70     LegendNANA

Notes on Data Quality.

Legend

  • E = Estimated
  • M = Missing
  • NA = Not Available*
  • [empty] = Indicates an unobserved value
Date modified: